Location: Worcester
(42.2731°N, 71.8111°W)
Time: 00:26:57
(UTC-04:00)

ISS - Visible Passes

Search period start: 21 September 2018 00:00
Search period end: 01 October 2018 00:00
Orbit: 403 x 408 km, 51.6° (Epoch: 21 September)

Date Brightness Start Highest point End Pass type
(mag) Time Alt. Az. Time Alt. Az. Time Alt. Az.
21 Sep -2.8 19:52:51 10° SSW 19:55:40 26° SE 19:56:04 25° ESE visible
22 Sep -3.3 20:36:51 10° WSW 20:39:44 60° W 20:39:44 60° W visible
23 Sep -3.8 19:45:02 10° SW 19:48:18 64° SE 19:50:28 19° ENE visible
23 Sep -0.7 21:22:14 10° WNW 21:23:10 16° WNW 21:23:10 16° WNW visible
24 Sep -2.4 20:29:56 10° W 20:33:00 35° NNW 20:33:42 31° N visible
25 Sep -3.2 19:37:47 10° WSW 19:41:02 56° NNW 19:44:05 11° NE visible
25 Sep -0.7 21:15:39 10° WNW 21:16:45 15° NW 21:16:45 15° NW visible
26 Sep -1.7 20:23:15 10° WNW 20:25:57 22° NNW 20:27:01 19° NNE visible
27 Sep -2.1 19:30:53 10° W 19:33:51 30° NNW 19:36:50 10° NE visible
27 Sep -0.7 21:08:57 10° NW 21:09:52 14° NNW 21:09:52 14° NNW visible
28 Sep -1.5 20:16:36 10° NW 20:18:55 17° N 20:19:58 15° NNE visible
29 Sep -1.6 19:24:10 10° WNW 19:26:44 21° NNW 19:29:19 10° NE visible
29 Sep -0.7 21:01:55 10° NW 21:02:41 13° NNW 21:02:41 13° NNW visible
30 Sep -1.5 20:09:46 10° NW 20:11:54 16° N 20:12:41 15° NNE visible
